Wind_Speed
8 5 11 12 9 8 3 3 5 3 5 3 7 12 10 18 24 28 33 38 40 40 36 35 35 36 36 36 40 39 38 40 42 45 46 47 48 46 46 39 41 40 39 40
3 16 8 6 7 7 7 9 4 5 4 3 12 19 13 9 16 30 33 34 39 37 33 33 34 32 31 34 37 40 40 39 42 45 48 49 47 49 49 47 40 41 43 42
15 4 14 8 5 7 6 11 5 7 0 4 6 22 13 15 19 24 25 29 33 35 37 37 35 35 29 33 29 30 34 41 42 41 44 49 49 51 51 51 47 37 46 46
9 13 7 6 12 9 12 6 6 5 3 7 6 11 3 5 10 9 22 28 31 34 33 34 36 35 39 33 31 30 31 34 41 42 47 49 53 54 53 51 49 43 41 47
6 11 13 13 7 9 4 6 8 6 5 2 11 6 1 2 7 14 15 21 22 26 32 34 34 32 32 31 25 32 32 30 30 37 45 48 50 53 53 53 52 49 44 44
5 4 8 7 5 10 5 4 2 2 3 8 11 8 20 6 7 6 5 24 27 31 26 29 28 27 20 21 26 27 26 27 25 27 37 44 48 49 51 54 54 52 50 46
5 7 2 4 5 2 5 5 2 2 6 8 3 7 18 6 9 10 11 23 21 17 25 32 35 34 27 20 20 19 19 18 20 26 33 40 44 48 50 52 55 55 55 53
12 4 13 7 11 6 8 11 7 5 4 4 3 6 8 10 18 15 10 8 9 23 27 28 36 35 32 30 24 18 17 17 17 22 27 33 38 43 49 51 52 55 56 57
8 8 2 5 5 14 6 10 13 3 1 1 4 7 11 11 15 8 5 7 17 22 26 31 36 33 32 28 27 28 23 21 17 15 21 29 31 36 43 47 50 51 53 54
7 1 6 8 4 9 8 8 2 4 6 10 5 5 8 6 2 5 6 14 22 25 30 30 27 28 25 22 20 18 21 22 20 18 18 19 23 30 39 41 45 48 49 51
5 3 1 7 9 15 7 7 4 4 4 4 2 6 8 11 5 3 2 12 15 18 22 22 21 21 22 22 22 21 20 20 20 21 21 19 17 18 20 31 38 39 42 46
6 4 5 9 2 6 18 17 15 7 6 3 3 10 6 7 5 3 5 12 12 13 17 19 22 22 24 25 29 27 26 25 26 26 26 26 23 23 23 24 26 33 39 41
11 5 2 6 4 1 6 11 11 10 2 13 4 10 1 8 5 13 13 12 12 12 15 17 20 24 27 28 30 30 30 30 31 30 29 27 27 27 27 27 27 27 28 32
24 4 12 14 4 6 7 7 12 12 5 16 15 20 25 3 4 8 8 8 9 12 16 19 22 25 26 29 30 34 34 34 36 34 33 33 30 29 30 31 29 30 29 29
11 8 6 4 4 5 7 11 12 17 25 10 19 16 3 4 4 7 8 8 11 16 20 24 27 29 31 34 36 36 35 37 39 40 38 37 36 34 34 33 33 32 32 34
7 5 9 4 6 5 4 8 11 15 10 14 14 20 5 8 12 11 10 11 14 18 22 27 30 32 33 36 39 40 41 41 41 40 41 41 40 40 39 37 36 37 35 34
10 5 3 6 1 5 8 20 12 7 7 13 14 16 5 4 6 6 6 9 13 18 25 30 33 34 38 39 39 39 42 44 45 44 44 43 44 44 44 42 39 37 38 37
12 11 3 3 2 8 5 3 11 21 15 14 4 5 6 5 2 8 5 6 16 21 27 31 33 36 38 40 41 43 43 43 44 46 46 45 44 45 45 46 45 43 40 39
16 11 4 5 5 5 5 5 7 8 9 5 9 7 7 4 10 6 5 9 18 23 26 27 31 33 35 37 41 45 47 46 46 48 49 50 48 46 46 46 47 46 45 44
4 15 10 3 6 10 5 1 5 4 10 7 11 9 6 6 4 3 8 15 21 24 24 27 28 33 35 37 40 43 44 46 47 47 50 50 49 48 47 45 46 47 45 46
8 8 15 7 4 7 5 5 6 7 4 12 13 15 10 4 3 5 14 16 17 19 23 24 28 30 31 34 36 38 41 44 46 47 47 48 49 47 46 45 43 44 45 46
11 10 6 3 3 13 4 5 10 6 12 16 15 12 9 5 4 7 10 12 14 18 21 23 26 27 29 31 35 37 38 41 44 46 47 46 46 46 45 44 43 41 42 45
4 6 7 7 5 2 1 4 12 13 18 13 12 8 4 2 2 5 8 9 13 16 19 22 25 27 28 29 31 35 36 39 42 45 46 45 43 42 41 41 40 38 37 40
2 1 4 4 3 4 8 12 14 15 15 12 8 5 2 1 1 2 4 8 11 14 18 21 23 24 25 27 28 30 35 37 40 42 44 44 43 41 40 40 38 36 34 37
2 3 5 2 1 2 8 11 16 13 10 8 6 4 2 2 1 2 4 6 9 12 15 17 20 22 24 26 25 26 30 34 38 40 41 42 41 40 40 39 39 36 32 30
6 5 6 7 12 4 6 24 17 13 9 7 5 4 3 2 0 2 4 7 10 12 14 16 18 20 23 25 26 26 28 31 35 38 39 40 42 41 39 40 42 35 32 30
Wind_Direction
176 194 211 207 218 229 131 186 210 216 238 256 256 276 277 285 293 291 289 290 291 291 290 286 284 281 279 275 270 270 269 264 262 255 252 251 252 255 254 257 255 253 253 253
175 222 203 189 209 217 230 237 219 245 211 235 273 275 275 253 259 277 281 282 284 293 292 292 291 287 282 284 274 264 260 263 262 260 257 256 257 256 257 257 260 258 256 252
211 242 184 184 177 194 216 228 195 227 25 265 288 278 265 266 254 269 278 283 284 287 293 299 299 292 291 295 286 276 261 258 263 265 263 255 253 252 253 256 252 261 258 254
229 235 179 188 216 180 237 196 192 216 195 255 161 286 161 261 274 252 277 286 293 300 308 311 309 299 300 301 290 293 284 269 263 264 262 260 256 255 259 259 258 257 270 260
211 179 187 208 190 179 220 158 175 184 210 281 242 271 219 194 277 273 276 292 302 317 320 320 324 315 300 292 292 301 296 280 268 263 263 261 260 259 261 260 260 261 259 268
230 209 190 193 157 183 137 100 59 101 208 247 244 201 280 253 230 292 289 298 315 329 348 0 354 339 304 293 294 290 288 282 279 272 267 263 262 263 261 259 260 262 262 263
163 212 218 164 121 74 167 115 271 307 213 238 149 189 245 294 278 248 274 304 331 21 16 23 19 15 10 346 321 312 304 291 288 284 276 270 268 266 265 264 264 264 264 265
207 227 183 186 198 162 205 200 217 204 210 238 142 225 251 247 266 288 298 322 24 14 11 9 6 6 9 16 14 9 9 355 325 303 292 284 277 271 269 267 266 266 267 270
184 234 138 183 155 168 188 200 219 306 139 8 226 279 285 270 277 298 63 21 21 15 12 4 1 4 2 7 7 7 7 13 7 339 308 298 293 286 278 275 274 272 271 271
200 193 192 191 145 207 172 152 138 179 235 243 240 250 242 271 86 133 4 14 8 4 7 6 357 358 5 10 8 349 350 358 353 347 337 329 310 295 288 284 278 276 277 275
153 130 46 124 204 193 191 208 196 137 170 189 230 251 211 251 215 177 85 6 10 14 2 2 13 12 8 4 4 2 359 354 341 337 333 330 321 319 299 286 286 283 282 281
178 156 192 206 212 204 217 220 209 217 217 234 282 266 139 152 147 103 4 22 43 19 8 0 358 5 6 5 3 2 1 357 352 347 338 339 326 315 313 309 296 290 286 285
172 207 76 332 342 66 194 214 219 226 71 229 180 259 135 126 24 1 31 56 33 18 11 11 5 7 4 5 360 359 358 354 351 348 346 341 334 326 315 310 306 299 291 287
172 189 206 220 213 141 194 186 194 200 200 243 226 254 260 287 305 31 61 39 26 20 13 6 5 2 1 359 354 355 353 348 345 345 342 341 339 332 326 318 307 303 299 292
171 222 203 248 185 172 195 203 185 204 224 196 245 226 181 165 137 106 85 58 34 18 8 3 359 356 353 350 349 348 344 343 341 338 337 335 332 329 327 322 318 304 297 296
188 236 184 239 197 196 224 218 205 215 224 232 250 257 122 117 115 99 80 53 29 9 357 353 349 348 347 344 341 339 338 337 334 334 332 330 327 324 322 320 317 317 306 294
190 166 112 243 170 116 272 236 204 203 199 202 224 242 156 121 109 129 104 54 19 358 347 344 342 341 339 337 337 334 332 331 331 331 328 326 324 321 320 318 315 313 314 307
184 196 179 169 121 215 254 317 212 213 220 213 156 127 122 127 133 174 150 15 354 346 339 336 334 332 333 332 331 329 330 330 330 328 326 324 322 319 317 315 315 313 310 308
199 177 170 162 197 298 261 206 171 172 246 169 133 138 145 123 146 176 215 324 334 331 329 329 327 328 328 331 329 328 329 329 328 326 324 323 324 321 318 315 313 311 308 304
216 186 204 149 175 209 246 148 142 117 261 165 141 144 150 138 160 167 220 305 320 324 329 331 335 338 336 334 331 329 329 328 327 325 324 324 325 324 320 318 314 311 309 304
191 197 212 200 216 283 227 165 140 162 238 138 142 146 148 144 135 254 293 306 320 329 335 337 338 339 338 336 334 332 331 331 329 327 326 325 325 323 322 319 316 314 311 306
175 178 196 112 177 252 139 118 177 143 120 147 147 150 157 181 252 292 311 327 337 339 342 342 341 344 345 344 341 339 337 333 332 330 329 328 325 324 323 321 319 317 316 312
190 186 187 186 200 58 65 84 132 148 151 159 157 165 174 187 291 321 334 339 343 344 346 348 348 348 350 351 349 343 341 339 336 335 335 332 329 326 325 323 321 319 320 317
180 111 129 131 139 139 134 135 140 142 149 152 160 173 178 137 63 320 333 339 348 352 354 354 351 350 351 353 354 349 344 344 342 341 341 340 336 332 329 328 327 320 316 313
139 90 114 72 134 127 211 185 157 151 154 164 168 171 154 144 217 330 348 358 0 359 359 354 353 354 354 354 357 352 347 346 348 350 349 349 344 341 336 331 330 326 318 311
178 165 187 220 184 148 179 181 175 171 173 174 175 166 172 178 263 10 17 13 11 7 0 358 357 357 357 355 355 355 355 354 353 353 353 355 351 346 344 339 333 332 330 325
Height
1537 1541 1537 1541 1542 1543 1545 1552 1555 1552 1550 1551 1549 1543 1539 1536 1533 1531 1527 1525 1523 1522 1523 1523 1522 1521 1520 1519 1518 1519 1519 1518 1520 1521 1521 1522 1521 1522 1524 1522 1525 1528 1532 1533
1537 1531 1535 1536 1541 1543 1545 1550 1555 1551 1548 1549 1545 1534 1532 1533 1529 1527 1524 1521 1518 1515 1515 1514 1512 1511 1510 1509 1508 1508 1508 1510 1511 1512 1513 1513 1515 1516 1517 1518 1519 1522 1524 1525
1527 1528 1531 1534 1540 1545 1546 1548 1552 1552 1547 1547 1547 1527 1531 1524 1522 1522 1520 1517 1515 1512 1509 1506 1505 1503 1502 1500 1499 1499 1500 1502 1502 1504 1505 1507 1508 1509 1509 1508 1508 1512 1512 1517
1528 1526 1532 1535 1536 1540 1543 1540 1547 1548 1552 1550 1544 1527 1523 1522 1518 1516 1514 1511 1511 1510 1506 1502 1498 1496 1494 1492 1491 1491 1491 1492 1494 1496 1496 1496 1496 1497 1499 1500 1502 1504 1505 1506
1522 1525 1529 1531 1530 1536 1538 1539 1544 1547 1551 1552 1543 1549 1514 1517 1517 1512 1507 1508 1505 1506 1504 1498 1492 1487 1484 1484 1484 1483 1481 1480 1483 1486 1488 1489 1489 1490 1493 1493 1494 1497 1496 1496
1520 1521 1523 1523 1527 1530 1534 1539 1544 1547 1550 1546 1533 1546 1505 1513 1510 1507 1505 1505 1503 1503 1500 1494 1488 1480 1476 1477 1477 1475 1472 1472 1475 1478 1481 1482 1482 1483 1484 1485 1485 1488 1488 1488
1520 1520 1519 1520 1527 1530 1532 1540 1549 1563 1546 1541 1530 1541 1511 1501 1504 1503 1504 1503 1503 1501 1498 1491 1486 1480 1475 1473 1471 1470 1468 1467 1470 1471 1473 1475 1474 1475 1474 1476 1477 1479 1479 1478
1512 1524 1516 1514 1515 1525 1532 1535 1536 1543 1550 1536 1535 1530 1509 1498 1496 1499 1501 1501 1500 1499 1496 1490 1487 1482 1478 1474 1472 1470 1469 1468 1468 1468 1469 1470 1470 1469 1469 1470 1470 1470 1470 1470
1511 1510 1504 1506 1509 1516 1527 1527 1523 1540 1554 1549 1532 1519 1503 1495 1492 1496 1497 1497 1498 1495 1492 1489 1486 1484 1480 1475 1474 1473 1472 1466 1464 1464 1466 1468 1465 1465 1465 1464 1464 1463 1464 1463
1499 1507 1501 1505 1507 1510 1513 1517 1531 1538 1534 1530 1522 1523 1509 1497 1493 1495 1496 1497 1495 1492 1489 1487 1485 1483 1481 1478 1474 1473 1471 1466 1464 1465 1467 1465 1462 1460 1460 1459 1457 1456 1456 1457
1495 1498 1505 1505 1504 1502 1509 1513 1513 1519 1531 1535 1540 1512 1492 1490 1492 1493 1495 1496 1494 1492 1490 1487 1487 1485 1482 1479 1475 1472 1469 1467 1465 1464 1462 1458 1457 1454 1453 1453 1452 1450 1448 1448
1494 1500 1507 1501 1496 1496 1496 1496 1505 1513 1524 1521 1519 1500 1485 1488 1489 1491 1494 1494 1493 1492 1491 1487 1483 1483 1481 1478 1476 1472 1467 1465 1465 1462 1460 1455 1453 1450 1448 1447 1445 1443 1440 1439
1485 1495 1524 1510 1500 1496 1497 1495 1496 1502 1511 1507 1519 1496 1478 1484 1486 1487 1489 1491 1491 1490 1489 1487 1484 1479 1479 1473 1474 1472 1467 1465 1463 1459 1455 1452 1448 1445 1443 1440 1437 1435 1432 1430
1479 1485 1481 1481 1476 1483 1490 1490 1493 1498 1515 1493 1496 1485 1466 1482 1484 1486 1488 1489 1489 1488 1487 1485 1482 1480 1476 1475 1475 1465 1461 1463 1459 1455 1452 1448 1445 1441 1437 1434 1430 1427 1424 1421
1475 1484 1481 1478 1476 1477 1478 1479 1488 1490 1479 1494 1477 1487 1479 1481 1483 1487 1488 1488 1488 1487 1486 1484 1481 1477 1474 1471 1466 1464 1465 1459 1454 1452 1447 1442 1439 1435 1431 1427 1422 1418 1415 1412
1468 1472 1475 1485 1478 1477 1477 1478 1479 1478 1480 1483 1480 1474 1476 1481 1483 1485 1486 1487 1487 1486 1485 1483 1479 1475 1471 1468 1463 1459 1456 1452 1451 1446 1441 1436 1431 1428 1424 1419 1414 1410 1406 1403
1463 1470 1483 1481 1480 1480 1482 1461 1473 1473 1472 1471 1476 1459 1474 1479 1481 1484 1485 1484 1486 1484 1481 1478 1475 1471 1468 1464 1460 1455 1451 1447 1442 1437 1433 1428 1423 1419 1415 1410 1406 1402 1396 1391
1455 1466 1473 1486 1488 1474 1452 1454 1452 1456 1457 1460 1463 1470 1472 1477 1480 1481 1483 1483 1483 1481 1478 1474 1471 1467 1464 1459 1454 1449 1445 1441 1436 1430 1424 1420 1416 1411 1406 1401 1394 1390 1386 1382
1442 1455 1463 1470 1494 1470 1454 1452 1456 1457 1454 1458 1463 1469 1471 1474 1478 1481 1481 1481 1479 1477 1475 1472 1468 1464 1460 1455 1448 1442 1436 1432 1427 1421 1415 1410 1406 1401 1397 1391 1386 1382 1377 1372
1443 1443 1453 1478 1465 1473 1446 1441 1443 1448 1450 1456 1458 1465 1468 1471 1475 1476 1477 1476 1475 1473 1471 1467 1463 1458 1454 1449 1443 1437 1430 1425 1420 1416 1409 1404 1400 1395 1389 1384 1377 1373 1368 1361
1436 1442 1439 1457 1460 1461 1439 1440 1443 1459 1446 1453 1457 1461 1465 1468 1472 1473 1473 1472 1470 1468 1466 1463 1459 1455 1451 1446 1440 1434 1428 1421 1415 1410 1406 1400 1395 1389 1383 1376 1371 1365 1358 1353
1423 1430 1434 1456 1454 1443 1437 1441 1441 1441 1449 1453 1456 1458 1462 1465 1467 1468 1469 1468 1465 1464 1462 1459 1455 1451 1447 1443 1437 1432 1427 1420 1412 1406 1400 1395 1389 1383 1376 1370 1362 1358 1353 1345
1424 1413 1420 1430 1428 1436 1437 1436 1440 1441 1446 1452 1452 1455 1457 1460 1462 1464 1464 1463 1461 1460 1459 1455 1451 1447 1444 1440 1435 1429 1424 1416 1409 1401 1395 1388 1383 1379 1373 1365 1357 1351 1347 1341
1411 1412 1417 1424 1433 1436 1437 1439 1440 1442 1446 1449 1451 1452 1453 1455 1458 1459 1459 1458 1457 1456 1453 1451 1448 1445 1442 1438 1433 1428 1421 1413 1405 1397 1390 1382 1376 1370 1365 1358 1353 1346 1341 1335
1413 1414 1422 1434 1439 1438 1435 1437 1437 1440 1444 1446 1447 1448 1450 1452 1454 1454 1454 1454 1453 1452 1450 1449 1445 1442 1438 1435 1429 1426 1419 1411 1402 1396 1386 1379 1374 1366 1359 1354 1347 1340 1336 1332
1409 1411 1413 1410 1411 1416 1420 1428 1434 1437 1441 1443 1445 1446 1448 1450 1451 1450 1450 1449 1449 1448 1447 1446 1442 1440 1436 1431 1427 1423 1416 1408 1400 1394 1386 1378 1371 1366 1356 1348 1338 1336 1329 1323